Regional Weather Roundup
Issued by NWS Goodland, KS

Home | Current Version | Previous Version | Graphics & Text | Print | Product List | Glossary On
Versions: 1 2 3 4 5 6 7 8 9 10 11 12 13 14 15 16 17 18 19 20 21 22 23 24 25 26 27 28 29 30 31 32 33 34 35 36 37 38 39 40 41 42 43 44 45 46 47 48 49 50
000
ASUS43 KGLD 130108
RWRGLD

GOODLAND FORECAST AREA HOURLY WEATHER ROUNDUP
NATIONAL WEATHER SERVICE GOODLAND KS
700 PM MDT SAT JUL 12 2014

...OFFICIAL OBSERVATIONS...

CITY           SKY/WX    TMP DP  RH WIND       PRES   REMARKS
GOODLAND KS    SUNNY     81  63  54 N10       30.12S
HILL CITY KS   SUNNY     85  69  58 NE16      30.03R
IMPERIAL NEB   CLOUDY    81  62  52 NE9       30.13R
MCCOOK NEB     SUNNY     81  67  62 NE14      30.07R
AKRON CO       PTSUNNY   78  60  53 N12       30.23R
BURLINGTON CO  MOSUNNY   80  62  54 N9        30.16S
LIMON CO       LGT RAIN  76  58  53 NE9       30.27R
$$

...UNOFFICIAL OBSERVATIONS...

CITY           SKY/WX    TMP DP  RH WIND       PRES   REMARKS
COLBY KS       SUNNY     84  70  61 N14       30.09R
GOVE KS          N/A     88  32  13 CALM        N/A
LENORA KS        N/A     80  32  17 MISG        N/A
NORTON KS      MOSUNNY   79  61  53 N10       30.04R
OBERLIN KS     FAIR      81  64  57 NE10G18   30.07
ST FRANCIS KS  MOSUNNY   81  59  47 N13       30.11
TRIBUNE KS     MOSUNNY   86  52  30 N17       30.09
WAKEENEY KS      N/A     86  65  49 MISG        N/A
KIT CARSON CO    N/A     82  61  49 N12G18      N/A
YUMA CO          N/A     78  63  60 E10         N/A
$$


USA.gov is the U.S. government's official web portal to all federal, state and local government web resources and services.